sat.trackr.live / text

‹ back to catalog

STARLINK-36039

NORAD 66612 · 2025-270AA

PAYLOAD ACTIVE UNKNOWN

§ Identity

Operator
Country
US
Launch date
2025-11-22
Launch site
AFETR
Launch vehicle
Mass (kg)
RCS (m²)

Purposes: comms

External: N2YO · Heavens-Above · Gunter

§ Orbital elements

Epoch: 2026-05-24T20:43:46.142400Z

Period
94.27 min
Inclination
43.0023°
Eccentricity
0.0001378
Mean motion
15.27607972 rev/d
Perigee alt
482.0 km
Apogee alt
483.9 km
Semi-major
6,861.1 km
B*
4.6250e-4
RAAN
346.1677°
Arg perigee
267.0996°
Mean anomaly
92.9698°
Rev number
2,935

§ Raw data

STARLINK-360391 66612U 25270AA  26144.86372850  .00012497  00000+0  46250-3 0  99952 66612  43.0023 346.1677 0001378 267.0996  92.9698 15.27607972 29355

JSON: /api/v1/satellites/66612 · /tle

For live sub-satellite position, see the globe view (requires WebGL).

§ Visibility from observer

Set your observer location to see the next 7 days of passes ≥ 10°. The values pass through the URL so the page stays shareable.

No JS? Fill the form by hand. The geolocation button needs JavaScript.